Location: Newark
(10.3333°N, 37.7167°E)
Time: 08:51:41
(UTC+00:00)

Envisat - Visible Passes

Search period start: 25 January 2020 00:00
Search period end: 04 February 2020 00:00
Orbit: 764 x 766 km, 98.1° (Epoch: 24 January)

Date Brightness Start Highest point End Pass type
(mag) Time Alt. Az. Time Alt. Az. Time Alt. Az.
25 Jan 5.8 03:04:20 10° NE 03:08:10 22° E 03:11:59 10° SSE visible
26 Jan 6.1 16:43:58 10° SW 16:47:02 16° W 16:50:05 10° WNW visible
27 Jan 4.4 03:28:48 10° NNE 03:33:37 44° E 03:38:26 10° S visible
27 Jan 4.3 16:05:28 10° S 16:10:18 45° W 16:15:07 10° NNW visible
28 Jan 6.1 02:53:50 10° ENE 02:56:53 16° E 02:59:53 10° SE visible
29 Jan 5.7 16:31:54 10° SSW 16:35:45 22° W 16:39:35 10° NW visible
30 Jan 5.1 03:17:49 10° NE 03:22:20 33° E 03:26:51 10° SSE visible
30 Jan 3.7 15:54:01 10° S 15:59:00 62° WSW 16:04:01 10° NNW visible
31 Jan 6.5 02:44:01 10° E 02:45:35 11° E 02:47:09 10° ESE visible
01 Feb 5.2 16:20:06 10° SSW 16:24:28 29° W 16:28:50 10° NW visible
02 Feb 5.7 03:06:59 10° NE 03:11:03 24° E 03:15:06 10° SSE visible
03 Feb 6.2 16:47:17 10° SW 16:49:56 14° W 16:52:34 10° WNW visible
